FW6644 Weather Reports


Display with metric or nautical units.
time (UTC)temp
F
wind
direction
speed
MPH
gust
MPH
rain 1hr
in
rain 24hr
in
rain mn
in
humidity
%
barometer
mb
20260902143016 88 148 0.0 2.0 0.00 0.00 0.00 56 1011.0
20260902141511 86 148 0.0 4.0 0.00 0.00 0.00 58 1010.9
20260902140009 85 183 1.0 4.0 0.00 0.00 0.00 60 1010.7
20260902134507 85 122 0.0 3.0 0.00 0.00 0.00 60 1010.4
20260902133010 83 125 0.0 3.0 0.00 0.00 0.00 62 1010.2
20260902131504 83 194 0.0 3.0 0.00 0.00 0.00 63 1010.0
20260902130005 82 117 1.0 2.0 0.00 0.00 0.00 64 1010.0
20260902124500 83 115 0.0 4.0 0.00 0.00 0.00 63 1009.9
20260902123106 83 141 1.0 4.0 0.00 0.00 0.00 63 1009.7
20260902121557 83 63 0.0 4.0 0.00 0.00 0.00 63 1009.7
20260902120056 83 138 0.0 2.0 0.00 0.00 0.00 62 1009.4
20260902114554 83 75 0.0 2.0 0.00 0.00 0.00 61 1009.5
20260902113154 84 117 0.0 1.0 0.00 0.00 0.00 61 1009.5
20260902111555 84 143 0.0 4.0 0.00 0.00 0.00 60 1009.5
20260902110057 85 89 0.0 3.0 0.00 0.00 0.00 59 1009.4
20260902104559 85 120 0.0 2.0 0.00 0.00 0.00 58 1009.3
20260902103105 85 91 0.0 1.0 0.00 0.00 0.00 56 1009.4
20260902101549 85 94 0.0 1.0 0.00 0.00 0.00 53 1009.5
20260902100042 86 150 0.0 1.0 0.00 0.00 0.00 49 1009.4
20260902094540 86 232 0.0 0.0 0.00 0.00 0.00 48 1009.4
20260902093042 87 232 0.0 0.0 0.00 0.00 0.00 47 1009.3
20260902091537 87 233 0.0 1.0 0.00 0.00 0.00 47 1009.3
20260902090039 88 136 0.0 2.0 0.00 0.00 0.00 46 1009.3
20260902084539 88 141 0.0 1.0 0.00 0.00 0.00 45 1009.4
20260902083031 89 222 0.0 1.0 0.00 0.00 0.00 45 1009.5
20260902081528 89 235 0.0 5.0 0.00 0.00 0.00 45 1009.6
20260902080029 90 120 1.0 5.0 0.00 0.00 0.00 44 1009.4
20260902074524 90 132 0.0 6.0 0.00 0.00 0.00 46 1009.4
20260902073025 90 61 1.0 5.0 0.00 0.00 0.00 47 1009.2
20260902071521 90 200 0.0 3.0 0.00 0.00 0.00 47 1009.1
20260902070023 90 201 0.0 3.0 0.00 0.00 0.00 46 1009.1
20260902064519 90 215 0.0 2.0 0.00 0.00 0.00 46 1009.1
20260902063041 90 134 0.0 1.0 0.00 0.00 0.00 45 1009.0
20260902061517 91 157 0.0 3.0 0.00 0.00 0.00 44 1009.1
20260902060017 91 218 0.0 1.0 0.00 0.00 0.00 44 1009.1
20260902054517 91 238 0.0 1.0 0.00 0.00 0.00 44 1009.1
20260902053017 91 274 0.0 2.0 0.00 0.00 0.00 43 1009.2
20260902051515 92 148 1.0 6.0 0.00 0.00 0.00 42 1009.2
20260902050020 92 140 0.0 1.0 0.00 0.00 0.00 41 1009.1
20260902044526 92 146 0.0 2.0 0.00 0.00 0.00 40 1009.0
20260902043015 92 146 0.0 0.0 0.00 0.00 0.00 39 1008.9
20260902041513 93 153 0.0 2.0 0.00 0.00 0.00 39 1008.8
20260902040013 93 122 0.0 1.0 0.00 0.00 0.00 38 1008.7
20260902034513 93 125 0.0 1.0 0.00 0.00 0.00 38 1008.6
20260902033013 93 114 0.0 1.0 0.00 0.00 0.00 39 1008.3
20260902031531 93 140 0.0 1.0 0.00 0.00 0.00 39 1007.9
20260902030011 93 150 0.0 1.0 0.00 0.00 0.00 38 1007.7
20260902024511 93 218 0.0 0.0 0.00 0.00 0.00 38 1007.6
20260902023020 93 340 0.0 0.0 0.00 0.00 0.00 38 1007.5
20260902021510 94 340 0.0 0.0 0.00 0.00 0.00 35 1007.4
20260902020010 94 340 0.0 0.0 0.00 0.00 0.00 35 1007.2
20260902014514 95 340 0.0 1.0 0.00 0.00 0.00 34 1007.1
20260902013008 97 1 1.0 2.0 0.00 0.00 0.00 33 1007.1
20260902011506 98 356 0.0 2.0 0.00 0.00 0.00 32 1007.3
20260902010005 99 259 1.0 4.0 0.00 0.00 0.00 32 1007.5
20260902004503 99 288 2.0 5.0 0.00 0.00 0.00 31 1007.6
20260902003001 100 253 1.0 6.0 0.00 0.00 0.00 31 1007.7
20260902001604 100 304 0.0 2.0 0.00 0.00 0.00 32 1007.8
20260902000059 99 261 2.0 5.0 0.00 0.00 0.00 32 1007.9
20260901234605 100 139 1.0 8.0 0.00 0.00 0.00 32 1008.0
20260901233055 100 57 4.0 8.0 0.00 0.00 0.00 32 1008.2
20260901231558 100 191 2.0 8.0 0.00 0.00 0.00 33 1008.2
20260901230105 100 89 3.0 8.0 0.00 0.00 0.00 34 1008.3
20260901224553 100 219 1.0 10.0 0.00 0.00 0.00 34 1008.4
20260901223050 102 228 1.0 4.0 0.00 0.00 0.00 33 1008.5
20260901221559 100 184 4.0 9.0 0.00 0.00 0.00 35 1008.9
20260901220045 100 311 2.0 9.0 0.00 0.00 0.00 34 1008.9
20260901214543 100 244 0.0 6.0 0.00 0.00 0.00 36 1009.1
20260901213040 101 91 0.0 3.0 0.00 0.00 0.00 35 1009.5
20260901211538 100 113 2.0 5.0 0.00 0.00 0.00 36 1009.8
20260901210035 100 186 2.0 6.0 0.00 0.00 0.00 36 1010.0
20260901204533 100 103 2.0 9.0 0.00 0.00 0.00 36 1010.3
20260901203030 97 212 1.0 5.0 0.00 0.00 0.00 40 1010.4
20260901201526 97 163 1.0 7.0 0.00 0.00 0.00 39 1010.7
20260901200025 98 345 1.0 5.0 0.00 0.00 0.00 38 1010.9
20260901194624 95 20 1.0 6.0 0.00 0.00 0.00 40 1011.1
20260901193022 96 346 1.0 5.0 0.00 0.00 0.00 40 1011.4
20260901191522 97 72 1.0 7.0 0.00 0.00 0.00 41 1011.6
20260901190024 95 117 2.0 5.0 0.00 0.00 0.00 44 1011.9
20260901184517 96 16 1.0 6.0 0.00 0.00 0.00 42 1012.1
20260901183023 95 145 2.0 8.0 0.00 0.00 0.00 43 1012.4
20260901181514 95 173 2.0 8.0 0.00 0.00 0.00 44 1012.5
20260901180015 93 122 3.0 7.0 0.00 0.00 0.00 45 1012.6
20260901174509 92 172 2.0 6.0 0.00 0.00 0.00 48 1012.8
20260901173008 92 168 0.0 6.0 0.00 0.00 0.00 48 1012.9
20260901171507 91 179 0.0 4.0 0.00 0.00 0.00 49 1012.9
20260901170005 91 186 3.0 6.0 0.00 0.00 0.00 49 1012.9
20260901164503 90 143 0.0 3.0 0.00 0.03 0.00 49 1012.7
20260901163117 89 172 1.0 5.0 0.00 0.03 0.00 50 1012.7
20260901161607 90 84 0.0 3.0 0.00 0.03 0.00 51 1012.6
20260901160057 88 174 1.0 5.0 0.00 0.03 0.00 53 1012.6
20260901154553 87 160 1.0 4.0 0.00 0.11 0.00 55 1012.6
20260901153048 85 98 1.0 5.0 0.00 0.11 0.00 57 1012.3
20260901151554 85 197 1.0 7.0 0.00 0.11 0.00 57 1012.4
20260901150046 84 112 0.0 6.0 0.00 0.11 0.00 57 1012.4
20260901144538 83 13 1.0 3.0 0.00 0.18 0.00 59 1012.3